#timestamp,LO_Frequency,Hit,StdDev 
1590912015.0,286046999.4,N
1590912015.9,286046999.4,N
1590912035.8,286046999.5,N
1590912055.6,286046997.0,N
1590912075.5,286046998.2,N
1590912095.3,286046998.1,N
1590912115.1,286047000.7,N
1590912135.9,286047000.5,N
1590912155.7,286046999.6,N
1590912175.6,286046998.3,N
1590912195.4,286046998.8,N
1590912215.3,286046996.8,N
1590912235.1,286046997.3,N
1590912236.0,286046997.3,N
1590912255.8,286046998.8,N
1590912275.7,286046998.5,N
1590912295.5,286047001.2,N
1590912315.4,286046999.5,N
1590912335.2,286046996.7,N
1590912355.0,286046997.7,N
1590912355.9,286046997.7,N
1590912375.8,286046998.2,N
1590912395.6,286046997.0,N
1590912415.4,286046999.5,N
1590912435.3,286046997.1,N
1590912455.1,286046999.5,N
1590912475.9,286046999.1,N
1590912495.7,286046999.9,N
1590912515.5,286047000.5,N
1590912535.4,286047000.3,N
1590912555.2,286047000.5,N
1590912575.1,286047002.7,N
1590912576.0,286047002.7,N
1590912595.8,286047002.6,N
1590912615.6,286046998.3,N
1590912635.5,286046998.5,N
1590912655.3,286046999.3,N
1590912675.1,286046999.0,N
1590912695.9,286046998.4,N
1590912715.7,286047000.7,N
1590912735.6,286047002.3,N
1590912755.4,286047001.4,N
1590912775.2,286047003.9,N
1590912795.1,286047003.5,N
1590912796.0,286047003.5,N
1590912815.8,286047002.2,N
1590912835.7,286047005.8,N
1590912855.5,286047004.0,N
1590912875.3,286047004.0,N
1590912895.2,286047011.9,Y
1590912915.0,286047001.5,P
1590912915.9,286047001.5,P
1590912935.8,286046999.8,N
1590912955.6,286047002.2,Y
1590912975.4,286047001.7,P
1590912995.3,286047002.6,P
1590913015.1,286047003.3,P
1590913035.8,286047001.5,N
1590913055.7,286047002.1,N
1590913075.5,286047002.2,N
1590913095.4,286047002.8,Y
1590913115.2,286046998.4,P
1590913135.0,286046997.4,N
1590913135.9,286046997.4,N
1590913155.8,286046996.6,N
1590913175.6,286046998.8,N
1590913195.5,286047001.2,N
1590913215.3,286047000.6,N
1590913235.1,286047000.8,N
1590913255.9,286046999.9,N
1590913275.7,286047001.0,N
1590913295.5,286047004.0,N
1590913315.4,286047003.9,N
1590913335.2,286046999.9,N
1590913355.1,286047001.7,N
1590913356.0,286047001.7,N
1590913375.8,286047001.7,N
1590913395.6,286047001.6,N
1590913415.5,286047000.2,N
1590913435.3,286047002.2,N
1590913455.2,286047000.9,N
1590913475.9,286047002.3,N
1590913495.7,286047000.2,N
1590913515.6,286047000.8,N
1590913535.4,286046999.8,N
1590913555.3,286047000.2,N
1590913575.1,286047001.9,N
1590913576.0,286047001.9,N
1590913595.8,286047001.6,N
1590913615.7,286047001.3,N
1590913635.5,286047003.2,N
1590913655.4,286047002.9,N
1590913675.2,286047003.1,N
1590913695.0,286047001.9,N
1590913695.9,286047001.9,N
1590913715.8,286047002.4,N
1590913735.6,286047000.0,N
1590913755.4,286047002.5,N
1590913775.3,286047001.8,N
1590913795.1,286047002.4,N
1590913815.9,286047004.2,Y
1590913835.7,286047002.4,P
1590913855.5,286047001.8,P
1590913875.4,286047002.3,P
1590913895.2,286047002.8,Y
1590913915.1,286046999.0,P
1590913916.0,286046999.0,N
1590913935.8,286046997.8,N
1590913955.6,286046995.2,Y
1590913975.5,286046998.8,P
1590913995.3,286046998.8,P
1590914015.2,286046998.2,P
1590914035.9,286046998.5,Y
1590914055.7,286046998.3,P
1590914075.6,286046998.3,P
1590914095.4,286046999.2,P
1590914115.3,286047002.4,Y
1590914135.1,286047000.2,P
1590914155.8,286046999.8,N
1590914175.7,286046999.7,N
1590914195.5,286047001.3,N
1590914215.4,286047002.3,N
1590914235.2,286047002.7,N
1590914255.0,286047002.3,N
1590914255.9,286047002.3,N
1590914275.8,286047001.2,N
1590914295.6,286047001.0,N
1590914315.5,286047002.8,N
1590914335.3,286047001.2,N
1590914355.1,286047001.1,N
1590914375.9,286047002.0,N
1590914395.7,286046998.1,N
1590914415.5,286047000.8,N
1590914435.4,286047001.5,N
1590914455.2,286047005.1,Y
1590914475.1,286047001.6,P
1590914476.0,286047001.6,P
1590914495.8,286046993.4,P
1590914515.6,286047001.3,N
1590914535.5,286047001.6,N
1590914555.3,286047000.4,N
1590914575.2,286046998.8,N
1590914595.9,286047002.7,N
1590914615.7,286047000.2,N
1590914635.6,286047000.6,N
1590914655.4,286047001.1,N
1590914675.3,286046999.2,N
1590914695.1,286047000.6,N
1590914696.0,286047000.6,N
1590914715.8,286047003.5,N
1590914735.7,286047001.9,N
1590914755.5,286047002.9,N
1590914775.4,286047004.4,N
1590914795.2,286047005.1,N
1590914815.0,286047004.4,N
1590914815.9,286047004.4,N
1590914835.8,286047003.0,N
1590914855.6,286047007.4,Y
1590914875.5,286047001.3,P
1590914895.3,286047004.2,P
1590914915.1,286047002.0,N
1590914935.9,286046998.6,N
1590914955.7,286046999.0,N
1590914975.5,286046996.9,N
1590914995.4,286046994.9,N
1590915015.2,286046995.6,N
1590915035.1,286046993.7,N
1590915036.0,286046993.7,N
1590915055.8,286046995.6,N
1590915075.6,286046995.6,N
1590915095.5,286046995.1,N
1590915115.3,286046995.6,N
1590915135.1,286046993.7,N
1590915155.9,286046993.3,N
1590915175.7,286046996.2,N
1590915195.6,286046991.7,N
1590915215.4,286046994.5,N
1590915235.2,286046990.2,N
1590915255.1,286046990.4,N
1590915256.0,286046990.4,N
1590915275.8,286046990.4,N
1590915295.7,286046991.2,N
1590915315.5,286046990.4,N
1590915335.3,286046993.0,N
1590915355.2,286046991.9,N
1590915375.0,286046992.3,N
1590915375.9,286046992.3,N
1590915395.8,286046990.4,N
1590915415.6,286046993.2,N
1590915435.4,286046990.1,N
1590915455.3,286046990.1,Y
1590915475.1,286046998.7,P
1590915525.9,286047000.8,E
1590915535.8,286047000.4,N
1590915555.6,286046998.7,P
1590915575.5,286046996.8,P
1590915595.3,286046997.3,N
